| time (UTC) | temp C | wind direction | speed KPH | gust KPH | rain 1hr cm | rain 24hr cm | rain mn cm | humidity % | barometer mb |
| 20260506082327 | 17 | 178 | 4.8 | 11.3 | 0.00 | 0.00 | 0.00 | 85 | 1015.9 |
| 20260506081322 | 17 | 138 | 4.8 | 11.3 | 0.00 | 0.00 | 0.00 | 85 | 1015.9 |
| 20260506080316 | 17 | 185 | 4.8 | 8.0 | 0.00 | 0.00 | 0.00 | 84 | 1015.8 |
| 20260506073312 | 17 | 111 | 4.8 | 9.7 | 0.00 | 0.00 | 0.00 | 83 | 1015.9 |
| 20260506072326 | 17 | 138 | 4.8 | 11.3 | 0.00 | 0.00 | 0.00 | 83 | 1015.9 |
| 20260506071331 | 17 | 150 | 4.8 | 12.9 | 0.00 | 0.00 | 0.00 | 83 | 1015.9 |
| 20260506070323 | 17 | 153 | 4.8 | 8.0 | 0.00 | 0.00 | 0.00 | 83 | 1015.8 |
| 20260506062334 | 18 | 127 | 4.8 | 9.7 | 0.00 | 0.00 | 0.00 | 81 | 1016.2 |
| 20260506061311 | 18 | 157 | 4.8 | 12.9 | 0.00 | 0.00 | 0.00 | 81 | 1016.3 |
| 20260506060323 | 18 | 153 | 4.8 | 11.3 | 0.00 | 0.00 | 0.00 | 81 | 1016.5 |
| 20260506051317 | 18 | 150 | 4.8 | 16.1 | 0.00 | 0.00 | 0.00 | 79 | 1016.8 |
| 20260506050337 | 18 | 119 | 3.2 | 12.9 | 0.00 | 0.00 | 0.00 | 79 | 1016.9 |
| 20260506044328 | 19 | 149 | 3.2 | 14.5 | 0.00 | 0.00 | 0.00 | 78 | 1017.0 |
| 20260506043321 | 19 | 148 | 4.8 | 12.9 | 0.00 | 0.00 | 0.00 | 78 | 1017.1 |
| 20260506042321 | 19 | 147 | 4.8 | 14.5 | 0.00 | 0.00 | 0.00 | 77 | 1017.1 |
| 20260506041333 | 19 | 150 | 6.4 | 16.1 | 0.00 | 0.00 | 0.00 | 77 | 1017.1 |
| 20260506040311 | 19 | 150 | 6.4 | 16.1 | 0.00 | 0.00 | 0.00 | 77 | 1017.2 |
| 20260506035353 | 20 | 108 | 4.8 | 12.9 | 0.00 | 0.00 | 0.00 | 77 | 1017.3 |
| 20260506034326 | 20 | 162 | 6.4 | 16.1 | 0.00 | 0.00 | 0.00 | 76 | 1017.2 |
| 20260506033329 | 20 | 150 | 6.4 | 16.1 | 0.00 | 0.00 | 0.00 | 76 | 1017.2 |
| 20260506032351 | 20 | 147 | 8.0 | 17.7 | 0.00 | 0.00 | 0.00 | 76 | 1017.4 |
| 20260506031346 | 20 | 136 | 8.0 | 19.3 | 0.00 | 0.00 | 0.00 | 75 | 1017.4 |
| 20260506030329 | 20 | 136 | 8.0 | 16.1 | 0.00 | 0.00 | 0.00 | 75 | 1017.5 |
| 20260506025323 | 20 | 88 | 9.7 | 16.1 | 0.00 | 0.00 | 0.00 | 75 | 1017.5 |
| 20260506024318 | 20 | 155 | 8.0 | 16.1 | 0.00 | 0.00 | 0.00 | 74 | 1017.5 |
| 20260506023325 | 21 | 159 | 8.0 | 17.7 | 0.00 | 0.00 | 0.00 | 74 | 1017.3 |
| 20260506022341 | 21 | 101 | 6.4 | 19.3 | 0.00 | 0.00 | 0.00 | 73 | 1017.4 |
| 20260506021321 | 21 | 139 | 6.4 | 17.7 | 0.00 | 0.00 | 0.00 | 72 | 1017.3 |
| 20260506020318 | 21 | 79 | 4.8 | 19.3 | 0.00 | 0.00 | 0.00 | 71 | 1017.1 |
| 20260506015313 | 21 | 113 | 6.4 | 17.7 | 0.00 | 0.00 | 0.00 | 70 | 1017.1 |
| 20260506014314 | 21 | 159 | 6.4 | 19.3 | 0.00 | 0.00 | 0.00 | 70 | 1016.9 |
| 20260506013311 | 21 | 172 | 6.4 | 17.7 | 0.00 | 0.00 | 0.00 | 69 | 1016.8 |
| 20260506012330 | 22 | 123 | 8.0 | 17.7 | 0.00 | 0.00 | 0.00 | 69 | 1016.8 |
| 20260506011329 | 22 | 206 | 8.0 | 14.5 | 0.00 | 0.00 | 0.00 | 68 | 1016.7 |
| 20260506010331 | 22 | 133 | 9.7 | 14.5 | 0.00 | 0.00 | 0.00 | 67 | 1016.5 |
| 20260506005329 | 22 | 144 | 8.0 | 16.1 | 0.00 | 0.00 | 0.00 | 66 | 1016.3 |
| 20260506004324 | 23 | 155 | 8.0 | 16.1 | 0.00 | 0.00 | 0.00 | 66 | 1016.2 |
| 20260506003320 | 23 | 144 | 11.3 | 16.1 | 0.00 | 0.00 | 0.00 | 65 | 1016.1 |
| 20260506002343 | 23 | 114 | 9.7 | 22.5 | 0.00 | 0.00 | 0.00 | 64 | 1015.9 |
| 20260506001317 | 23 | 146 | 8.0 | 16.1 | 0.00 | 0.00 | 0.00 | 63 | 1015.9 |
| 20260506000319 | 24 | 116 | 9.7 | 19.3 | 0.00 | 0.00 | 0.00 | 62 | 1015.7 |
| 20260505235313 | 24 | 138 | 4.8 | 12.9 | 0.00 | 0.00 | 0.00 | 61 | 1015.8 |
| 20260505234334 | 25 | 182 | 8.0 | 17.7 | 0.00 | 0.00 | 0.00 | 59 | 1015.6 |
| 20260505233310 | 25 | 107 | 11.3 | 20.9 | 0.00 | 0.00 | 0.00 | 58 | 1015.5 |
| 20260505232327 | 25 | 137 | 11.3 | 20.9 | 0.00 | 0.00 | 0.00 | 57 | 1015.5 |
| 20260505231327 | 26 | 149 | 8.0 | 24.1 | 0.00 | 0.00 | 0.00 | 55 | 1015.3 |
| 20260505230329 | 26 | 182 | 8.0 | 20.9 | 0.00 | 0.00 | 0.00 | 55 | 1015.4 |
| 20260505225323 | 27 | 160 | 4.8 | 19.3 | 0.00 | 0.00 | 0.00 | 53 | 1015.5 |
| 20260505224317 | 27 | 145 | 4.8 | 20.9 | 0.00 | 0.00 | 0.00 | 53 | 1015.5 |
| 20260505223320 | 28 | 182 | 8.0 | 16.1 | 0.00 | 0.00 | 0.00 | 52 | 1015.5 |
| 20260505222338 | 28 | 150 | 8.0 | 25.7 | 0.00 | 0.00 | 0.00 | 51 | 1015.5 |
| 20260505221318 | 28 | 140 | 6.4 | 16.1 | 0.00 | 0.00 | 0.00 | 50 | 1015.7 |
| 20260505220311 | 28 | 132 | 8.0 | 19.3 | 0.00 | 0.00 | 0.00 | 52 | 1015.7 |
| 20260505215334 | 28 | 151 | 11.3 | 16.1 | 0.00 | 0.00 | 0.00 | 50 | 1015.6 |
| 20260505214310 | 28 | 122 | 11.3 | 22.5 | 0.00 | 0.00 | 0.00 | 48 | 1015.8 |
| 20260505213326 | 28 | 168 | 8.0 | 29.0 | 0.00 | 0.00 | 0.00 | 48 | 1015.7 |
| 20260505212324 | 28 | 174 | 6.4 | 20.9 | 0.00 | 0.00 | 0.00 | 48 | 1015.7 |
| 20260505211320 | 28 | 113 | 4.8 | 30.6 | 0.00 | 0.00 | 0.00 | 48 | 1015.8 |
| 20260505210316 | 28 | 126 | 6.4 | 24.1 | 0.00 | 0.00 | 0.00 | 46 | 1015.8 |
| 20260505205340 | 29 | 134 | 8.0 | 17.7 | 0.00 | 0.00 | 0.00 | 48 | 1015.8 |
| 20260505204315 | 29 | 165 | 9.7 | 24.1 | 0.00 | 0.00 | 0.00 | 48 | 1015.9 |
| 20260505203323 | 28 | 212 | 8.0 | 16.1 | 0.00 | 0.00 | 0.00 | 49 | 1015.9 |
| 20260505202314 | 29 | 135 | 9.7 | 20.9 | 0.00 | 0.00 | 0.00 | 48 | 1015.8 |
| 20260505201333 | 30 | 130 | 16.1 | 27.4 | 0.00 | 0.00 | 0.00 | 45 | 1016.0 |
| 20260505200331 | 30 | 136 | 8.0 | 20.9 | 0.00 | 0.00 | 0.00 | 46 | 1016.0 |
| 20260505195346 | 29 | 153 | 6.4 | 17.7 | 0.00 | 0.00 | 0.00 | 46 | 1016.1 |
| 20260505194320 | 29 | 139 | 9.7 | 17.7 | 0.00 | 0.00 | 0.00 | 47 | 1016.4 |
| 20260505193318 | 29 | 142 | 11.3 | 19.3 | 0.00 | 0.00 | 0.00 | 46 | 1016.7 |
| 20260505192311 | 29 | 154 | 8.0 | 22.5 | 0.00 | 0.00 | 0.00 | 47 | 1016.9 |
| 20260505191334 | 29 | 155 | 9.7 | 25.7 | 0.00 | 0.00 | 0.00 | 47 | 1016.8 |
| 20260505190328 | 28 | 150 | 8.0 | 16.1 | 0.00 | 0.00 | 0.00 | 47 | 1016.9 |
| 20260505185349 | 28 | 138 | 8.0 | 19.3 | 0.00 | 0.00 | 0.00 | 47 | 1017.2 |
| 20260505184324 | 29 | 219 | 9.7 | 17.7 | 0.00 | 0.00 | 0.00 | 48 | 1017.3 |
| 20260505183324 | 29 | 159 | 14.5 | 25.7 | 0.00 | 0.00 | 0.00 | 46 | 1017.4 |
| 20260505182318 | 28 | 141 | 8.0 | 24.1 | 0.00 | 0.00 | 0.00 | 48 | 1017.4 |
| 20260505181315 | 29 | 211 | 8.0 | 20.9 | 0.00 | 0.00 | 0.00 | 48 | 1017.5 |
| 20260505180334 | 29 | 137 | 9.7 | 17.7 | 0.00 | 0.00 | 0.00 | 48 | 1017.6 |
| 20260505175332 | 29 | 169 | 4.8 | 17.7 | 0.00 | 0.00 | 0.00 | 47 | 1017.7 |
| 20260505174327 | 29 | 178 | 4.8 | 12.9 | 0.00 | 0.00 | 0.00 | 47 | 1017.8 |
| 20260505173323 | 29 | 132 | 9.7 | 17.7 | 0.00 | 0.00 | 0.00 | 48 | 1017.8 |
| 20260505172320 | 29 | 148 | 3.2 | 12.9 | 0.00 | 0.00 | 0.00 | 49 | 1017.8 |
| 20260505171314 | 29 | 257 | 9.7 | 17.7 | 0.00 | 0.00 | 0.00 | 48 | 1017.9 |
| 20260505170335 | 28 | 153 | 6.4 | 20.9 | 0.00 | 0.00 | 0.00 | 50 | 1017.8 |
| 20260505165310 | 28 | 160 | 6.4 | 20.9 | 0.00 | 0.00 | 0.00 | 50 | 1018.1 |
| 20260505164329 | 28 | 125 | 6.4 | 19.3 | 0.00 | 0.00 | 0.00 | 49 | 1018.2 |
| 20260505163317 | 28 | 128 | 6.4 | 19.3 | 0.00 | 0.00 | 0.00 | 54 | 1018.2 |
| 20260505162309 | 27 | 131 | 11.3 | 19.3 | 0.00 | 0.00 | 0.00 | 54 | 1018.3 |
| 20260505161311 | 27 | 207 | 9.7 | 17.7 | 0.00 | 0.00 | 0.00 | 54 | 1018.5 |
| 20260505160322 | 27 | 146 | 6.4 | 17.7 | 0.00 | 0.00 | 0.00 | 52 | 1018.6 |
| 20260505153327 | 26 | 229 | 9.7 | 16.1 | 0.00 | 0.00 | 0.00 | 54 | 1018.8 |
| 20260505152324 | 26 | 206 | 4.8 | 16.1 | 0.00 | 0.00 | 0.00 | 54 | 1018.8 |
| 20260505151334 | 26 | 142 | 8.0 | 14.5 | 0.00 | 0.00 | 0.00 | 57 | 1018.9 |
| 20260505150328 | 25 | 249 | 4.8 | 19.3 | 0.00 | 0.00 | 0.00 | 58 | 1018.8 |
| 20260505140328 | 22 | 213 | 6.4 | 16.1 | 0.00 | 0.00 | 0.00 | 65 | 1018.8 |
| 20260505130310 | 20 | 238 | 4.8 | 12.9 | 0.00 | 0.00 | 0.00 | 73 | 1018.8 |
| 20260505124319 | 18 | 217 | 4.8 | 12.9 | 0.00 | 0.00 | 0.00 | 75 | 1018.7 |
| 20260505123312 | 18 | 134 | 3.2 | 14.5 | 0.00 | 0.00 | 0.00 | 77 | 1018.7 |
| 20260505122313 | 17 | 241 | 4.8 | 12.9 | 0.00 | 0.00 | 0.00 | 78 | 1018.7 |
| 20260505121328 | 17 | 184 | 4.8 | 11.3 | 0.00 | 0.00 | 0.00 | 79 | 1018.8 |
| 20260505120329 | 16 | 227 | 6.4 | 12.9 | 0.00 | 0.00 | 0.00 | 80 | 1018.7 |
| 20260505115321 | 16 | 215 | 3.2 | 9.7 | 0.00 | 0.00 | 0.00 | 81 | 1018.6 |
| 20260505114321 | 15 | 225 | 4.8 | 8.0 | 0.00 | 0.00 | 0.00 | 81 | 1018.5 |
| 20260505113318 | 15 | 207 | 1.6 | 9.7 | 0.00 | 0.00 | 0.00 | 83 | 1018.5 |
| 20260505112336 | 15 | 184 | 1.6 | 4.8 | 0.00 | 0.00 | 0.00 | 82 | 1018.4 |
| 20260505111328 | 14 | 150 | 3.2 | 6.4 | 0.00 | 0.00 | 0.00 | 83 | 1018.4 |
| 20260505110309 | 13 | 142 | 3.2 | 4.8 | 0.00 | 0.00 | 0.00 | 83 | 1018.2 |
| 20260505101324 | 13 | 141 | 1.6 | 4.8 | 0.00 | 0.00 | 0.00 | 83 | 1017.5 |
| 20260505100324 | 13 | 128 | 1.6 | 4.8 | 0.00 | 0.00 | 0.00 | 83 | 1017.4 |
| 20260505095317 | 13 | 153 | 1.6 | 4.8 | 0.00 | 0.00 | 0.00 | 82 | 1017.4 |
| 20260505094311 | 13 | 134 | 1.6 | 4.8 | 0.00 | 0.00 | 0.00 | 82 | 1017.4 |
| 20260505093310 | 13 | 121 | 1.6 | 3.2 | 0.00 | 0.00 | 0.00 | 81 | 1017.4 |
| 20260505092329 | 14 | 126 | 0.0 | 4.8 | 0.00 | 0.00 | 0.00 | 81 | 1017.4 |
| 20260505091322 | 14 | 186 | 1.6 | 4.8 | 0.00 | 0.00 | 0.00 | 80 | 1017.3 |
| 20260505090319 | 14 | 129 | 0.0 | 4.8 | 0.00 | 0.00 | 0.00 | 80 | 1017.3 |
| 20260505085321 | 14 | 157 | 1.6 | 4.8 | 0.00 | 0.00 | 0.00 | 80 | 1017.2 |
| 20260505084315 | 14 | 116 | 0.0 | 4.8 | 0.00 | 0.00 | 0.00 | 79 | 1017.1 |
| 20260505083325 | 15 | 138 | 1.6 | 4.8 | 0.00 | 0.00 | 0.00 | 78 | 1017.0 |